Tracking 29065 objects as of 22-Jul-2024
HD Live streaming from Space Station
objects crossing your sky now

COSMOS 1275 DEB

Track COSMOS 1275 DEB now!
10-day predictions


NORAD ID: 20505
Int'l Code: 1981-053MS
Perigee: 746.3 km
Apogee: 776.5 km
Inclination: 83.2 °
Period: 99.9 minutes
Semi major axis: 7132 km
RCS: 0.0047 m2 (small)
Launch date: June 4, 1981
Source: Commonwealth of Independent States (former USSR) (CIS)
Launch site: PLESETSK MISSILE AND SPACE COMPLEX (PKMTR)

Note: This is SATELLITE DEBRIS
Your satellite tracking list
Your tracking list is empty




NASA's NSSDC Master Catalog

Two Line Element Set (TLE):
1 20505U 81053MM  24202.98532238  .00011888  00000-0  36591-2 0  9991
2 20505  83.1528  98.8762 0021170  44.0587 316.2289 14.41289839574512
Source of the keplerian elements: AFSPC